Epoch 2007 Dec. 6.0 TT = JDT 2454440.5 T 2007 Dec. 6.68739 TT MPC q 2.4947160 (2000.0) P Q n 0.13310956 Peri. 245.37184 +0.88796421 -0.45535160 a 3.7989468 Node 141.62534 +0.45057003 +0.83312726 e 0.3433138 Incl. 5.97391 +0.09222910 +0.31393295 P 7.40 From 63 observations 2007 Sept. 8-Oct. 16, mean residual 0".7.
m1 = 13.0 + 5 logΔ + 10.0 log r